Regional Weather Roundup
Issued by NWS

Home | Current Version | Previous Version | Graphics & Text | Print | Product List | Glossary On
Versions: 1 2 3 4 5 6 7 8 9 10 11 12 13 14 15 16 17 18 19 20 21 22 23 24 25 26 27 28 29 30 31 32 33 34 35 36 37 38 39 40 41 42 43 44 45 46 47 48 49 50
000
ASUS45 KPSR 071400
RWRAZ

ARIZONA HOURLY REGIONAL WEATHER ROUNDUP
NATIONAL WEATHER SERVICE PHOENIX AZ
700 AM MST TUE JUL 07 2015

NOTE: FAIR INDICATES FEW OR NO CLOUDS BELOW 12,000 FEET WITH NO
SIGNIFICANT WEATHER AND/OR OBSTRUCTIONS TO VISIBILITY.

AZZ001>003-036-071500-
NORTHWEST ARIZONA

CITY           SKY/WX    TMP DP  RH WIND       PRES   REMARKS
KINGMAN        MOSUNNY   77  51  40 SE5       30.07R
$$

AZZ004>008-015-016-018-071500-
NORTH CENTRAL ARIZONA

CITY           SKY/WX    TMP DP  RH WIND       PRES   REMARKS
GRAND CANYON   PTSUNNY   57  52  83 CALM      30.28R
WILLIAMS       PTSUNNY   59  52  77 S5        30.35R
PRESCOTT       SUNNY     67  55  65 CALM      30.18R
FLAGSTAFF      NOT AVBL
PAYSON         SUNNY     68  52  56 CALM      30.20R
PAGE           SUNNY     70  56  61 SW3       30.12R
$$

AZZ009>014-017-071500-
NORTHEAST ARIZONA

CITY           SKY/WX    TMP DP  RH WIND       PRES   REMARKS
WINSLOW        NOT AVBL
SAINT JOHNS    SUNNY     67  53  61 CALM      30.21R
WINDOW ROCK    SUNNY     60  52  74 CALM      30.28R
SHOW LOW       SUNNY     64  50  59 CALM      30.27R
$$

AZZ023-071500-
GREATER PHOENIX AREA

CITY           SKY/WX    TMP DP  RH WIND       PRES   REMARKS
PHOENIX        MOSUNNY   87  63  44 SE7       29.89R
GLENDALE       MOSUNNY   84  64  51 CALM      29.92R
LUKE AFB       SUNNY     84  64  51 S3        29.89R
DEER VALLEY    SUNNY     85  62  46 SE5       29.92R
SCOTTSDALE     SUNNY     85  64  49 CALM      29.94R
MESA-GATEWAY   MOSUNNY   82  64  54 SE7       29.94R
CHANDLER       MOSUNNY   86  66  51 VRB5      29.91R
$$

AZZ027-028-071500-
SOUTHWEST MARICOPA COUNTY AND PINAL COUNTY

CITY           SKY/WX    TMP DP  RH WIND       PRES   REMARKS
CASA GRANDE    SUNNY     82  66  57 CALM      29.92S
GILA BEND      FAIR      85  60  43 VRB2      29.88R
$$

AZZ503-504-507>509-071500-
SOUTHEAST ARIZONA

CITY           SKY/WX    TMP DP  RH WIND       PRES   REMARKS
TUCSON         MOSUNNY   80  64  58 SE3       30.04R
DAVIS-MONTHAN  MOSUNNY   79  65  62 SE6       30.03R
RYAN FIELD     MOSUNNY   79  66  65 E6        30.02S
NOGALES        SUNNY     72  63  73 S3        30.12R
SIERRA VISTA   SUNNY     71  62  72 VRB1      30.18R
SAFFORD        MOSUNNY   79  62  56 S6        30.03R
$$

AZZ020-021-025-026-031-071500-
SOUTHWEST ARIZONA

CITY           SKY/WX    TMP DP  RH WIND       PRES   REMARKS
YUMA           MOSUNNY   85  38  18 S3        29.82R
$$

CAZ031-033-041-043-047-048-061-071500-
SOUTHERN CALIFORNIA

CITY           SKY/WX    TMP DP  RH WIND       PRES   REMARKS
DOWNTOWN L.A.  CLOUDY    67  60  78 CALM      29.99R HAZE
L.A. AIRPORT   CLOUDY    64  60  87 VRB5      29.99R
SAN DIEGO      CLOUDY    65  59  81 SW6       30.01R
BURBANK        CLOUDY    65  59  81 S5        29.99R HAZE
ONTARIO        CLOUDY    64  58  80 CALM      30.00R HAZE
RIVERSIDE      CLOUDY   N/A N/A N/A MISG        N/A  FOG
PALM SPRINGS   SUNNY     83  57  41 NW6       29.85S
EL CENTRO NAS  MOSUNNY   82  63  52 S5        29.83R
IMPERIAL       SUNNY     83  65  54 CALM      29.80R
BLYTHE         SUNNY     86  51  29 S7        29.83R
$$

NVZ020-UTZ003-071500-
SOUTHERN NEVADA-UTAH

CITY           SKY/WX    TMP DP  RH WIND       PRES   REMARKS
LAS VEGAS      NOT AVBL
SALT LAKE CITY MOSUNNY   70  58  65 S9        30.07S
$$

NMZ009-TXZ055-071500-
NEW MEXICO-WEST TEXAS

CITY           SKY/WX    TMP DP  RH WIND       PRES   REMARKS
ALBUQUERQUE    MOSUNNY   65  56  72 E12       30.24R
EL PASO        MOSUNNY   77  61  57 NE5       30.10R
$$


........................KEY........................
SKY/WX - SKY CONDITION/WEATHER
TMP    - TEMPERATURE IN FAHRENHEIT
DP     - DEW POINT IN FAHRENHEIT
RH     - RELATIVE HUMIDITY IN PERCENT
WIND   - DIRECTION AND SPEED IN MILES PER HOUR (MPH)
VRB    - VARIABLE WIND DIRECTION
PRES   - MEAN SEA LEVEL PRESSURE IN INCHES OF MERCURY
         F - FALLING PRESSURE   R - RISING PRESSURE
         S - STEADY PRESSURE
VSB    - VISIBILITY IN MILES
HX     - HEAT INDEX IN FAHRENHEIT
WCI    - WIND CHILL INDEX IN FAHRENHEIT
TC     - TEMPERATURE IN CELSIUS WHICH IS ALSO KNOWN AS
         TEMPERATURE IN CENTIGRADE
AFB    - AIR FORCE BASE
         LUKE AFB IS LUKE AIR FORCE BASE
         DAVIS-MONTHAN IS DAVIS-MONTHAN AIR FORCE BASE
NAS    - NAVAL AIR STATION
         EL CENTRO NAS IS EL CENTRO NAVAL AIR STATION
N/A    - NOT AVAILABLE



USA.gov is the U.S. government's official web portal to all federal, state and local government web resources and services.